Flag Weather past 2 weeks in Gdynia, Poland

Now
37 °F

Fog.


Feels Like: 37 °F
Forecast: 43 / 50 °F
Wind: 2 mph from West

Location: Gdansk-Rebiechowo

Current Time: Oct 31, 2014 at 12:55:51 AM

Latest Report: Oct 31, 2014 at 12:30 AM


Visibility: 1 mi

Pressure: 30.30 "Hg

Humidity: 93%

Dew point: 36 °F

Location of GdyniaLocation

Historic Weather in Gdynia — Graph

°F

Gdynia temperature yesterday

Maximum temperature yesterday: 52 °F (at 12:00 PM)
Minimum temperature yesterday: 34 °F (at 12:30 AM)
Average temperature yesterday: 42 °F

Past Weeks' High & Low Weather Summary

 TemperatureHumidityPressure
High66 °F (Oct 19, 2:00 PM)100% (Oct 16, 12:00 AM)30.33 "Hg (Oct 16, 12:00 AM)
Low28 °F (Oct 25, 7:30 AM)35% (Oct 29, 12:30 PM)29.53 "Hg (Oct 22, 2:00 AM)
Average46 °F85%30.03 "Hg
* Reported Midnight between Oct 15 and Oct 16 — Oct 30 11:30 PM, Gdynia, Weather by CustomWeather, © 2014

Note: Actual official high and low records may vary slightly from our data, if they occured in-between our weather recording intervals... More about our weather records

Advertising

Gdynia weather history for previous 24 hours

 ConditionsComfort  
Time TempWeatherWind HumidityBarometerVisibility
11:30 PM
Oct 30
37 °FFog.1 mph100%30.30 "Hg1 mi
11:00 PM39 °FFog.No wind93%30.27 "Hg1 mi
10:30 PM39 °FFog.2 mph93%30.27 "Hg1 mi
10:00 PM39 °FFog.2 mph100%30.27 "Hg1 mi
9:30 PM41 °FFog.1 mph93%30.27 "Hg1 mi
9:00 PM41 °FFog.1 mph93%30.27 "Hg2 mi
8:30 PM41 °FFog.1 mph93%30.27 "Hg3 mi
8:00 PM41 °FClear.2 mph93%30.27 "Hg10 mi
7:30 PM41 °FClear.No wind93%30.27 "Hg10 mi
7:00 PM43 °FClear.2 mph93%30.27 "Hg10 mi
6:30 PM43 °FClear.1 mph93%30.27 "Hg10 mi
6:00 PM43 °FPassing clouds.2 mph93%30.27 "HgN/A
5:30 PM43 °FPassing clouds.2 mph93%30.24 "HgN/A
5:00 PM45 °FPassing clouds.3 mph81%30.24 "HgN/A
4:30 PM45 °FPassing clouds.6 mph81%30.24 "HgN/A
4:00 PM46 °FScattered clouds.7 mph82%30.24 "HgN/A
3:30 PM48 °FScattered clouds.5 mph76%30.21 "HgN/A
3:00 PM48 °FPassing clouds.8 mph82%30.21 "HgN/A
2:30 PM50 °FPassing clouds.9 mph76%30.21 "HgN/A
2:00 PM50 °FPassing clouds.8 mph76%30.21 "HgN/A
1:30 PM50 °FPassing clouds.10 mph71%30.21 "HgN/A
1:00 PM50 °FPassing clouds.10 mph71%30.18 "HgN/A
12:30 PM52 °FPassing clouds.12 mph67%30.18 "HgN/A
12:00 PM52 °FPassing clouds.12 mph72%30.18 "HgN/A
11:30 AM50 °FPassing clouds.8 mph82%30.18 "HgN/A
11:00 AM48 °FFog.7 mph87%30.18 "Hg2 mi
10:30 AM46 °FFog.9 mph93%30.18 "Hg2 mi
10:00 AM45 °FFog.9 mph100%30.15 "Hg2 mi
9:30 AM45 °FFog.10 mph100%30.15 "Hg1 mi
9:00 AM45 °FFog.7 mph93%30.15 "Hg1 mi
8:30 AM45 °FFog.7 mph93%30.15 "Hg1 mi
8:00 AM43 °FFog.3 mph93%30.12 "Hg1 mi
7:30 AM41 °FFog.5 mph100%30.12 "Hg1 mi
7:00 AM41 °FFog.3 mph93%30.12 "Hg1 mi
6:30 AM41 °FFog.2 mph93%30.12 "Hg2 mi
6:00 AM41 °FFog.3 mph93%30.09 "Hg2 mi
5:30 AM39 °FFog.3 mph93%30.09 "Hg2 mi
5:00 AM39 °FFog.2 mph93%30.09 "Hg3 mi
4:30 AM37 °FFog.3 mph100%30.09 "Hg3 mi
4:00 AM37 °FFog.2 mph93%30.09 "Hg3 mi
3:30 AM36 °FFog.2 mph93%30.09 "Hg3 mi
3:00 AM34 °FFog.2 mph100%30.09 "Hg3 mi
2:30 AM34 °FPassing clouds.2 mph93%30.09 "Hg4 mi
2:00 AM34 °FClear.3 mph93%30.09 "Hg4 mi
1:30 AM34 °FClear.1 mph93%30.09 "Hg5 mi
1:00 AM34 °FClear.2 mph93%30.09 "Hg5 mi
12:30 AM34 °FClear.1 mph93%30.07 "Hg5 mi
12:00 AM36 °FClear.3 mph87%30.09 "Hg10 mi
Weather by CustomWeather, © 2014

See weather overviewHow to use our weather pages